Regional Weather Roundup
Issued by NWS

Home | Current Version | Previous Version | Graphics & Text | Print | Product List | Glossary On
Versions: 1 2 3 4 5 6 7 8 9 10 11 12 13 14 15 16 17 18 19 20 21 22 23 24 25 26 27 28 29 30 31 32 33 34 35 36 37 38 39 40 41 42 43 44 45 46 47 48 49 50
000
ASUS45 KPSR 300410
RWRAZ

ARIZONA REGIONAL HOURLY WEATHER ROUNDUP
NATIONAL WEATHER SERVICE PHOENIX AZ
900 PM MST SUN MAR 29 2015

NOTE: FAIR INDICATES FEW OR NO CLOUDS BELOW 12,000 FEET WITH NO
SIGNIFICANT WEATHER AND/OR OBSTRUCTIONS TO VISIBILITY.

AZZ001>003-036-300500-
NORTHWEST ARIZONA

CITY           SKY/WX    TMP DP  RH WIND       PRES   REMARKS
BULLHEAD CITY  PTCLDY    81  21  11 CALM      29.93R
KINGMAN        MOCLDY    63  24  22 S12       30.09R
$$

AZZ004>008-015-016-018-300500-
NORTH CENTRAL ARIZONA

CITY           SKY/WX    TMP DP  RH WIND       PRES   REMARKS
GRAND CANYON   PTCLDY    46  21  37 CALM      30.27R
WILLIAMS       MOCLDY    50  16  25 SE3       30.34S
PRESCOTT       MOCLDY    57  21  24 S8        30.19R
FLAGSTAFF      PTCLDY    45  22  40 CALM      30.30R
PAYSON         MOCLDY    63  19  19 CALM      30.21S
PAGE           CLOUDY    69  22  16 S3        30.10R
$$

AZZ009>014-017-300500-
NORTHEAST ARIZONA

CITY           SKY/WX    TMP DP  RH WIND       PRES   REMARKS
WINSLOW        PTCLDY    58  21  24 SW9       30.17R
SAINT JOHNS    PTCLDY    59  12  15 S9        30.21R
WINDOW ROCK    PTCLDY    47  20  34 CALM      30.26R
SHOW LOW       PTCLDY    52  16  24 S9        30.29R
$$

AZZ023-300500-
GREATER PHOENIX AREA

CITY           SKY/WX    TMP DP  RH WIND       PRES   REMARKS
PHOENIX        MOCLDY    84  22  10 CALM      29.93R
BUCKEYE        CLOUDY    73  25  16 NE7       29.94R
LUKE AFB       PTCLDY    75  37  24 CALM      29.93R
DEER VALLEY    PTCLDY    76  24  14 CALM      29.95R
SCOTTSDALE     CLEAR     79  28  15 CALM      29.97R
MESA-GATEWAY   PTCLDY    75  27  16 VRB5      29.98R
CHANDLER       PTCLDY    79  28  15 CALM      29.95R
$$

AZZ027-028-300500-
SOUTHWEST MARICOPA COUNTY AND PINAL COUNTY

CITY           SKY/WX    TMP DP  RH WIND       PRES   REMARKS
CASA GRANDE    MOCLDY    75  21  13 CALM      29.96R
GILA BEND      FAIR      82  21  10 S9        29.92R
$$

AZZ503-504-507>509-300500-
SOUTHEAST ARIZONA

CITY           SKY/WX    TMP DP  RH WIND       PRES   REMARKS
TUCSON         MOCLDY    77  25  14 W5        30.07R
DAVIS-MONTHAN  PTCLDY    74  28  18 SW6       30.06R
NOGALES        CLOUDY    67  28  23 E7        30.14R
DOUGLAS        MOCLDY    62  29  28 NE3       30.15R
SAFFORD        MOCLDY    72  18  13 N9        30.06R
$$

AZZ020-021-025-026-031-300500-
SOUTHWEST ARIZONA

CITY           SKY/WX    TMP DP  RH WIND       PRES   REMARKS
YUMA           MOCLDY    83  38  20 SW6       29.90R
$$

CAZ031-033-041-043-047-048-061-300500-
SOUTHERN CALIFORNIA

CITY           SKY/WX    TMP DP  RH WIND       PRES   REMARKS
DOWNTOWN L.A.  CLEAR     63  58  83 CALM      30.01R
L.A. AIRPORT   PTCLDY    60  57  89 SW7       30.01R
SAN DIEGO      MOCLDY    65  58  78 W3        30.04R
BURBANK        CLEAR     69  48  47 CALM      30.00R
ONTARIO        CLEAR     68  48  48 W9        30.01R
RIVERSIDE      CLEAR     69  45  41 W3        30.01R
PALM SPRINGS   PTCLDY    85  37  18 W6        29.92R
EL CENTRO NAS  CLOUDY    81  40  23 SW8       29.87R
IMPERIAL       CLOUDY    77  47  34 W6        29.87R
BLYTHE         MOCLDY    83  33  16 W9        29.89R
NEEDLES        PTCLDY    80  19  10 W12       29.93R
$$

NVZ020-UTZ003-300500-
SOUTHERN NEVADA-UTAH

CITY           SKY/WX    TMP DP  RH WIND       PRES   REMARKS
LAS VEGAS      PTCLDY    80  21  11 SW7       29.95R
SALT LAKE CITY CLEAR     52  30  43 SE5       30.19F
$$

NMZ009-TXZ055-300500-
NEW MEXICO-WEST TEXAS

CITY           SKY/WX    TMP DP  RH WIND       PRES   REMARKS
ALBUQUERQUE    CLOUDY    67  27  22 E26G38    30.19R
EL PASO        CLOUDY    78  14   9 CALM      30.12R
$$


........................KEY........................
SKY/WX - SKY CONDITION/WEATHER
TMP    - TEMPERATURE IN FAHRENHEIT
DP     - DEW POINT IN FAHRENHEIT
RH     - RELATIVE HUMIDITY IN PERCENT
WIND   - DIRECTION AND SPEED IN MILES PER HOUR (MPH)
VRB    - VARIABLE WIND DIRECTION
PRES   - MEAN SEA LEVEL PRESSURE IN INCHES OF MERCURY
         F - FALLING PRESSURE   R - RISING PRESSURE
         S - STEADY PRESSURE
VSB    - VISIBILITY IN MILES
HX     - HEAT INDEX IN FAHRENHEIT
WCI    - WIND CHILL INDEX IN FAHRENHEIT
TC     - TEMPERATURE IN CELSIUS WHICH IS ALSO KNOWN AS
         TEMPERATURE IN CENTIGRADE
AFB    - AIR FORCE BASE
         LUKE AFB IS LUKE AIR FORCE BASE
         DAVIS-MONTHAN IS DAVIS-MONTHAN AIR FORCE BASE
NAS    - NAVAL AIR STATION
         EL CENTRO NAS IS EL CENTRO NAVAL AIR STATION
N/A    - NOT AVAILABLE




USA.gov is the U.S. government's official web portal to all federal, state and local government web resources and services.